[[{"header":{"parameterUnit":"m.s-1","parameterCategory":1,"la1":30.2991,"la2":30.254,"lo1":-89.0895,"lo2":-89.0444,"dy":0.0017,"dx":0.0017,"nx":28,"ny":28,"refTime":"2025-03-30T03:00:00:Z","depth":0,"parameterNumber":2,"parameterNumberName":"U-component_of_WINDS"},"data":[0,0,0,0,0,0,0,0,0,0,0,0,0,0,0,0,0,0,0,0,0,0,0,0,0,0,0,0,0,0,0,0,0,0,0,0,0,0,0,0,0,0,0,0,0,0,0,0,0,0,0,0,0,0,0,0,0,0,-1.9028,-1.9029,0,-1.9097,-1.9097,-1.9098,-1.9123,-1.9123,-1.9122,-1.9122,-1.9192,-1.9194,-1.9196,0,0,0,0,0,0,0,0,0,0,0,0,0,-1.8919,-1.8921,-1.9028,-1.9029,-1.903,-1.9097,-1.9098,-1.9098,-1.9123,-1.9123,-1.9122,-1.9122,-1.9191,-1.9194,-1.9196,0,0,0,0,0,0,0,0,0,0,0,0,0,-1.8975,-1.8922,-1.9028,-1.905,-1.9053,-1.9096,-1.9098,-1.9099,-1.9123,-1.9123,-1.9122,-1.9122,-1.919,-1.9193,-1.9197,-1.9223,0,0,-1.9206,-1.9207,0,0,0,0,0,0,0,0,-1.8972,-1.8979,-1.9046,-1.9049,-1.9052,-1.9101,-1.9085,-1.914,-1.9123,-1.9096,-1.9122,-1.9122,-1.9162,-1.9167,-1.9181,-1.9226,-1.9229,-1.9206,-1.9208,-1.921,-1.921,0,0,0,0,0,0,0,-1.8968,-1.8976,-1.9055,-1.9047,-1.9051,-1.9057,-1.9064,-1.9095,-1.913,-1.9099,-1.9101,-1.9108,-1.9163,-1.9178,-1.9183,-1.923,-1.9206,-1.9209,-1.9211,-1.9212,-1.9301,-1.9302,0,0,0,0,0,0,-1.896,-1.8973,-1.9053,-1.9057,-1.901,-1.9059,-1.9068,-1.9086,-1.913,-1.9136,-1.9109,-1.9109,-1.9173,-1.9179,-1.9185,-1.9219,-1.921,-1.9212,-1.9214,-1.9301,-1.9302,-1.9302,0,0,0,0,0,0,-1.8958,-1.8967,-1.9051,-1.9016,-1.9027,-1.9061,-1.9081,-1.9087,-1.9102,-1.9138,-1.9144,-1.9117,-1.9173,-1.9181,-1.9214,-1.9222,-1.9214,-1.9217,-1.93,-1.9301,-1.9302,-1.9287,0,0,0,0,0,0,-1.8955,-1.8966,-1.8977,-1.9016,-1.9029,-1.9077,-1.9082,-1.9089,-1.9107,-1.9108,-1.9147,-1.9153,-1.9173,-1.9209,-1.9217,-1.9226,-1.9219,-1.93,-1.9301,-1.9302,-1.9287,-1.9287,-1.9288,0,0,0,0,0,-1.8951,-1.897,-1.8977,-1.8987,-1.9042,-1.9078,-1.9085,-1.9108,-1.9107,-1.9118,-1.9141,-1.9152,-1.922,-1.9212,-1.9221,-1.9232,-1.9299,-1.93,-1.9302,-1.9287,-1.9287,-1.9288,0,0,0,0,0,0,-1.893,-1.8975,-1.8984,-1.9016,-1.9043,-1.9082,-1.9096,-1.9107,-1.9135,-1.9135,-1.9162,-1.917,-1.9201,-1.922,-1.921,-1.926,-1.926,-1.9263,-1.9246,-1.9247,-1.9247,-1.9242,-1.9222,0,0,0,0,0,-1.893,-1.8955,-1.8993,-1.9017,-1.9031,-1.9061,-1.9077,-1.9092,-1.9121,-1.9133,-1.9159,-1.9186,-1.9214,-1.9232,-1.9259,-1.929,-1.9299,-1.9302,-1.9303,-1.9303,-1.9305,-1.9323,-1.9325,-1.9306,-1.9306,-1.9306,0,0,-1.8928,-1.8956,-1.897,-1.9014,-1.9037,-1.9062,-1.907,-1.9097,-1.9116,-1.9137,-1.9169,-1.9189,-1.9222,-1.9254,-1.927,-1.9271,-1.9312,-1.9304,-1.9304,-1.9306,-1.9324,-1.9326,-1.9328,-1.9307,-1.9306,-1.9306,0,0,-1.8939,-1.8962,-1.8985,-1.9008,-1.9042,-1.9063,-1.9068,-1.9106,-1.912,-1.9153,-1.9169,-1.9193,-1.924,-1.9263,-1.928,-1.93,-1.9311,-1.9309,-1.931,-1.9327,-1.9329,-1.933,-1.9337,-1.9339,-1.9311,-1.9311,-1.9311,0,-1.8932,-1.8971,-1.8996,-1.9022,-1.904,-1.9061,-1.9085,-1.9106,-1.9147,-1.916,-1.9161,-1.9221,-1.9244,-1.9282,-1.9287,-1.9301,-1.9308,-1.9304,-1.9327,-1.9328,-1.933,-1.9337,-1.934,-1.931,-1.931,-1.931,-1.931,0,-1.8962,-1.8989,-1.9004,-1.9043,-1.9064,-1.9089,-1.9117,-1.9135,-1.9149,-1.9169,-1.9202,-1.9232,-1.9266,-1.9276,-1.929,-1.9316,-1.9316,-1.9321,-1.9322,-1.9331,-1.9338,-1.9341,-1.9309,-1.931,-1.931,-1.931,0,0,-1.896,-1.9014,-1.9019,-1.9037,-1.9077,-1.9098,-1.9124,-1.9157,-1.9172,-1.9201,-1.9223,-1.9263,-1.9269,-1.9289,-1.9306,-1.9321,-1.9335,-1.9325,-1.9326,-1.9325,-1.9366,-1.9361,-1.9364,-1.9343,-1.9344,-1.9344,-1.9363,0,-1.8976,-1.9022,-1.9045,-1.9082,-1.9107,-1.9128,-1.915,-1.9177,-1.9197,-1.9222,-1.9244,-1.9272,-1.9277,-1.929,-1.9306,-1.933,-1.9343,-1.9329,-1.9364,-1.9365,-1.9354,-1.9368,-1.9362,-1.9379,-1.9366,-1.9367,-1.9367,0,-1.8999,-1.9028,-1.9067,-1.9104,-1.9115,-1.9135,-1.9168,-1.9191,-1.9222,-1.9236,-1.9259,-1.9275,-1.9304,-1.9303,-1.9343,-1.9332,-1.9349,-1.9363,-1.9364,-1.9367,-1.9366,-1.9371,-1.9385,-1.9387,-1.9372,-1.9371,-1.9371,0,-1.8994,-1.9042,-1.9071,-1.9087,-1.9131,-1.9144,-1.9163,-1.9194,-1.9213,-1.9242,-1.9254,-1.9286,-1.9303,-1.9328,-1.9353,-1.935,-1.939,-1.9392,-1.9402,-1.9401,-1.9409,-1.9408,-1.9425,-1.942,-1.942,-1.942,-1.942,0,-1.9008,-1.9031,-1.9069,-1.9088,-1.9114,-1.9141,-1.9167,-1.9187,-1.9215,-1.9238,-1.9258,-1.9279,-1.9311,-1.9336,-1.9356,-1.9385,-1.9393,-1.9405,-1.941,-1.9403,-1.9401,-1.9413,-1.9412,-1.9421,-1.9421,-1.942,-1.942,0,-1.9006,-1.9032,-1.9066,-1.9105,-1.9116,-1.9134,-1.9168,-1.9186,-1.9208,-1.9236,-1.9245,-1.9278,-1.9309,-1.9336,-1.9377,-1.939,-1.9421,-1.9427,-1.941,-1.9413,-1.9421,-1.942,-1.9446,-1.9451,-1.9443,-1.9443,-1.9443,0,-1.9013,-1.9031,-1.9072,-1.9089,-1.9108,-1.9134,-1.9154,-1.9181,-1.92,-1.9238,-1.9252,-1.9284,-1.9311,-1.936,-1.9388,-1.942,-1.9426,-1.9434,-1.9431,-1.9424,-1.9426,-1.9424,-1.9427,-1.9433,-1.9433,-1.9433,-1.9433,0,-1.9022,-1.9035,-1.9061,-1.9093,-1.9115,-1.9142,-1.9169,-1.9181,-1.9214,-1.9234,-1.9266,-1.9287,-1.9329,-1.9361,-1.9396,-1.9416,-1.943,-1.9434,-1.9438,-1.943,-1.9419,-1.9425,-1.9409,-1.9433,-1.9433,-1.9433,-1.9433,-1.9433,-1.9025,-1.9042,-1.9074,-1.9103,-1.9126,-1.9151,-1.917,-1.9194,-1.9221,-1.9257,-1.9272,-1.9304,-1.9336,-1.9384,-1.9404,-1.943,-1.9433,-1.9439,-1.944,-1.9441,-1.944,-1.9416,-1.9437,-1.9437,-1.9437,-1.9437,-1.9437,0,-1.9035,-1.9056,-1.9083,-1.912,-1.9143,-1.9154,-1.9185,-1.9204,-1.9231,-1.926,-1.9286,-1.9323,-1.9354,-1.9385,-1.9418,-1.9433,-1.9441,-1.9441,-1.944,-1.9444,-1.9436,-1.9429,-1.9435,-1.9435,-1.9435,-1.9435,-1.9435,-1.9435,-1.9043,-1.9072,-1.9088,-1.913,-1.9152,-1.9183,-1.9199,-1.9223,-1.9245,-1.9285,-1.9311,-1.9331,-1.9361,-1.9397,-1.9426,-1.9435,-1.9446,-1.9444,-1.9454,-1.9445,-1.9445,-1.9445,-1.9438,-1.9447,-1.9447,-1.9461,-1.9461,-1.9461]},{"header":{"parameterUnit":"m.s-1","parameterCategory":1,"la1":30.2991,"la2":30.254,"lo1":-89.0895,"lo2":-89.0444,"dy":0.0017,"dx":0.0017,"nx":28,"ny":28,"refTime":"2025-03-30T03:00:00:Z","depth":0,"parameterNumber":3,"parameterNumberName":"V-component_of_WINDS"},"data":[0,0,0,0,0,0,0,0,0,0,0,0,0,0,0,0,0,0,0,0,0,0,0,0,0,0,0,0,0,0,0,0,0,0,0,0,0,0,0,0,0,0,0,0,0,0,0,0,0,0,0,0,0,0,0,0,0,0,3.0214,3.0216,0,3.038,3.0381,3.0383,3.047,3.047,3.047,3.047,3.0643,3.0647,3.0652,0,0,0,0,0,0,0,0,0,0,0,0,0,2.9977,2.998,3.0214,3.0216,3.0218,3.0379,3.0382,3.0384,3.047,3.047,3.047,3.047,3.0642,3.0647,3.0652,0,0,0,0,0,0,0,0,0,0,0,0,0,3.0105,2.9982,3.0213,3.028,3.0288,3.0379,3.0382,3.0384,3.047,3.047,3.047,3.047,3.064,3.0646,3.0653,3.0691,0,0,3.0674,3.0677,0,0,0,0,0,0,0,0,3.0097,3.0113,3.0268,3.0276,3.0284,3.0404,3.0361,3.0487,3.047,3.0401,3.047,3.047,3.0564,3.0577,3.0607,3.0699,3.0707,3.0674,3.0678,3.0681,3.0683,0,0,0,0,0,0,0,3.0088,3.0107,3.0279,3.027,3.028,3.0303,3.0322,3.0386,3.0479,3.0407,3.0413,3.0432,3.0568,3.0601,3.0612,3.0709,3.0674,3.068,3.0684,3.0687,3.0844,3.0844,0,0,0,0,0,0,3.0068,3.0099,3.0274,3.0284,3.0189,3.0308,3.0328,3.0366,3.0479,3.0496,3.0431,3.0435,3.0589,3.0604,3.0619,3.0673,3.0681,3.0687,3.0691,3.0844,3.0844,3.0844,0,0,0,0,0,0,3.0063,3.0083,3.0268,3.0193,3.0219,3.0311,3.0353,3.0369,3.0401,3.0497,3.0515,3.0447,3.059,3.0609,3.0673,3.068,3.069,3.0697,3.0844,3.0844,3.0844,3.078,0,0,0,0,0,0,3.0055,3.008,3.0094,3.0193,3.0222,3.0317,3.0353,3.0372,3.0412,3.0419,3.0517,3.0533,3.0591,3.0662,3.068,3.0689,3.0702,3.0844,3.0844,3.0844,3.0782,3.0778,3.0774,0,0,0,0,0,3.0047,3.007,3.0095,3.0115,3.0242,3.0317,3.0334,3.04,3.0413,3.0429,3.0491,3.053,3.0676,3.0668,3.0688,3.07,3.0844,3.0844,3.0844,3.0783,3.0778,3.0774,0,0,0,0,0,0,2.997,3.0084,3.0113,3.0168,3.0232,3.0332,3.0354,3.0392,3.0455,3.0459,3.0538,3.056,3.0617,3.0665,3.0654,3.0745,3.0764,3.0768,3.0711,3.0707,3.0703,3.0691,3.0707,0,0,0,0,0,2.9959,3.001,3.0108,3.0147,3.0178,3.026,3.0296,3.0341,3.0411,3.0439,3.0506,3.0573,3.0635,3.0674,3.0735,3.0789,3.0813,3.0807,3.0804,3.08,3.0803,3.0838,3.0837,3.0845,3.0845,3.0845,0,0,2.9938,3.0007,3.0034,3.0134,3.0189,3.0241,3.0282,3.0336,3.0376,3.0447,3.0512,3.0563,3.0645,3.0704,3.0734,3.0746,3.0806,3.0801,3.0797,3.0802,3.0838,3.0837,3.0836,3.0845,3.0845,3.0845,0,0,2.9927,2.9983,3.0023,3.0078,3.0161,3.0216,3.0225,3.032,3.0357,3.0422,3.0478,3.0528,3.0631,3.0688,3.073,3.0742,3.0782,3.076,3.0741,3.0774,3.0773,3.0773,3.0779,3.078,3.0763,3.0763,3.0762,0,2.9891,2.9971,3.0039,3.009,3.0133,3.02,3.0243,3.0293,3.0392,3.0421,3.0433,3.0566,3.0625,3.07,3.0703,3.0734,3.075,3.0749,3.0767,3.0768,3.0769,3.0776,3.0778,3.0759,3.076,3.076,3.076,0,2.9923,2.9978,3.0001,3.0094,3.014,3.0186,3.0264,3.0303,3.0344,3.0398,3.0466,3.054,3.0619,3.064,3.0681,3.0721,3.0727,3.0752,3.0773,3.0764,3.0772,3.0775,3.0755,3.0756,3.0757,3.0758,0,0,2.9867,2.9999,3.0007,3.0051,3.0148,3.0193,3.0244,3.032,3.0353,3.0419,3.0465,3.0552,3.0577,3.0625,3.0673,3.0702,3.071,3.0725,3.0728,3.072,3.0761,3.0742,3.0744,3.0736,3.0737,3.0738,3.0755,0,2.9871,2.9963,3.0027,3.0096,3.0149,3.0214,3.0258,3.0324,3.0376,3.043,3.0489,3.055,3.0577,3.0607,3.0638,3.0702,3.0719,3.0701,3.0782,3.0783,3.076,3.0748,3.0727,3.074,3.0758,3.0759,3.0759,0,2.9887,2.9951,3.0024,3.0118,3.0143,3.0181,3.0258,3.0308,3.0385,3.0422,3.0476,3.0526,3.0584,3.06,3.0683,3.0669,3.0706,3.0743,3.0745,3.0756,3.0771,3.0759,3.0746,3.0748,3.0765,3.0764,3.0764,0,2.9841,2.9946,3.0004,3.004,3.015,3.0176,3.0224,3.0301,3.0343,3.0411,3.044,3.0513,3.0554,3.061,3.068,3.0684,3.0756,3.0777,3.079,3.0788,3.0803,3.0801,3.0796,3.0824,3.0824,3.0824,3.0824,0,2.9839,2.9881,2.9985,3.0021,3.0071,3.0146,3.0195,3.0248,3.0316,3.0365,3.0426,3.0471,3.0559,3.0615,3.067,3.0731,3.0749,3.0781,3.0796,3.0777,3.0773,3.0802,3.0804,3.0825,3.0825,3.0824,3.0824,0,2.9795,2.9866,2.9934,3.0034,3.006,3.0093,3.0179,3.0217,3.0274,3.0335,3.0354,3.0442,3.0512,3.0587,3.0681,3.0718,3.0778,3.0797,3.0751,3.076,3.0769,3.0767,3.0783,3.079,3.0812,3.0812,3.0811,0,2.979,2.9824,2.9927,2.9964,3.001,3.0068,3.0112,3.0188,3.0231,3.0323,3.0351,3.0424,3.0488,3.0596,3.067,3.0744,3.0766,3.0767,3.0778,3.0758,3.0769,3.0766,3.0771,3.0764,3.0763,3.0762,3.0762,0,2.9773,2.9807,2.9867,2.994,2.9991,3.0053,3.0117,3.0144,3.0233,3.0279,3.0351,3.04,3.0497,3.0571,3.0654,3.0705,3.0749,3.0758,3.0765,3.0747,3.0719,3.0736,3.0743,3.0757,3.0758,3.0758,3.0758,3.0759,2.975,2.9784,2.9862,2.9928,2.9985,3.0044,3.0085,3.0147,3.0208,3.0292,3.0334,3.0406,3.0485,3.06,3.065,3.0709,3.0722,3.0732,3.0735,3.0737,3.0732,3.0709,3.0724,3.0725,3.0725,3.0725,3.0725,0,2.9737,2.9791,2.9851,2.9939,2.9991,3.0028,3.0101,3.0143,3.0206,3.0275,3.0336,3.042,3.0492,3.0572,3.065,3.0681,3.0704,3.0699,3.0698,3.071,3.0715,3.0702,3.068,3.068,3.068,3.068,3.068,3.068,2.9737,2.9797,2.9841,2.9931,2.9986,3.0056,3.0095,3.0151,3.0207,3.0297,3.0357,3.0409,3.0484,3.0567,3.0636,3.0658,3.0685,3.0674,3.0702,3.0706,3.0709,3.0713,3.0701,3.0679,3.0679,3.0693,3.0693,3.0693]}]]